[[{"header":{"parameterUnit":"m.s-1","parameterCategory":1,"la1":30.2991,"la2":30.254,"lo1":-89.0895,"lo2":-89.0444,"dy":0.0017,"dx":0.0017,"nx":28,"ny":28,"refTime":"2025-04-18T09:00:00:Z","depth":0,"parameterNumber":2,"parameterNumberName":"U-component_of_WINDS"},"data":[0,0,0,0,0,0,0,0,0,0,0,0,0,0,0,0,0,0,0,0,0,0,0,0,0,0,0,0,0,0,0,0,0,0,0,0,0,0,0,0,0,0,0,0,0,0,0,0,0,0,0,0,0,0,0,0,0,0,-4.0275,-4.0276,0,-4.0351,-4.0352,-4.0352,-4.0342,-4.0341,-4.034,-4.0339,-4.0414,-4.0417,-4.042,0,0,0,0,0,0,0,0,0,0,0,0,0,-4.0121,-4.0123,-4.0275,-4.0276,-4.0277,-4.0351,-4.0352,-4.0353,-4.0342,-4.0341,-4.0339,-4.0338,-4.0413,-4.0417,-4.042,0,0,0,0,0,0,0,0,0,0,0,0,0,-4.0191,-4.0124,-4.0275,-4.0281,-4.0282,-4.035,-4.0352,-4.0353,-4.0343,-4.0341,-4.0339,-4.0337,-4.0412,-4.0416,-4.0421,-4.0487,0,0,-4.0435,-4.0437,0,0,0,0,0,0,0,0,-4.0187,-4.0197,-4.0279,-4.0281,-4.0282,-4.0335,-4.0325,-4.0398,-4.0343,-4.032,-4.0339,-4.0336,-4.0389,-4.0396,-4.0414,-4.0491,-4.0494,-4.0436,-4.0439,-4.0441,-4.0442,0,0,0,0,0,0,0,-4.0182,-4.0193,-4.0305,-4.028,-4.0282,-4.0279,-4.0287,-4.0339,-4.0364,-4.0322,-4.0321,-4.033,-4.0389,-4.0409,-4.0415,-4.0495,-4.0436,-4.044,-4.0443,-4.0445,-4.063,-4.0632,0,0,0,0,0,0,-4.0176,-4.0189,-4.0303,-4.0307,-4.0229,-4.0284,-4.0292,-4.032,-4.0363,-4.0368,-4.0332,-4.033,-4.0402,-4.041,-4.0418,-4.0498,-4.0441,-4.0445,-4.0448,-4.0628,-4.0631,-4.0633,0,0,0,0,0,0,-4.0173,-4.0186,-4.03,-4.0248,-4.0262,-4.0288,-4.0319,-4.0323,-4.0342,-4.0371,-4.0375,-4.0347,-4.0401,-4.0411,-4.047,-4.05,-4.0447,-4.0451,-4.0626,-4.0629,-4.0632,-4.0658,0,0,0,0,0,0,-4.0168,-4.0185,-4.0211,-4.0249,-4.0265,-4.0351,-4.0321,-4.0325,-4.0351,-4.0348,-4.0387,-4.0391,-4.04,-4.0463,-4.0475,-4.0506,-4.0455,-4.0623,-4.0627,-4.0631,-4.0655,-4.0662,-4.0668,0,0,0,0,0,-4.0163,-4.0215,-4.0212,-4.0226,-4.0298,-4.0353,-4.0362,-4.0372,-4.0353,-4.0379,-4.0398,-4.039,-4.0496,-4.0469,-4.0482,-4.0515,-4.0621,-4.0626,-4.0631,-4.0652,-4.0661,-4.0668,0,0,0,0,0,0,-4.0179,-4.022,-4.0217,-4.0284,-4.0315,-4.0351,-4.0384,-4.0381,-4.0417,-4.0414,-4.0424,-4.0433,-4.0492,-4.051,-4.048,-4.0582,-4.0556,-4.0563,-4.0567,-4.0576,-4.0582,-4.0576,-4.0459,0,0,0,0,0,-4.019,-4.0232,-4.0265,-4.032,-4.0336,-4.0358,-4.0382,-4.0387,-4.0419,-4.0432,-4.0455,-4.0486,-4.0526,-4.0553,-4.0591,-4.0658,-4.0666,-4.0687,-4.0694,-4.0699,-4.0705,-4.0741,-4.075,-4.0648,-4.0648,-4.0648,0,0,-4.0213,-4.0241,-4.0267,-4.0324,-4.0349,-4.0391,-4.0369,-4.0414,-4.0445,-4.0439,-4.0495,-4.0514,-4.0549,-4.0612,-4.0641,-4.0629,-4.0735,-4.0705,-4.0709,-4.0712,-4.0747,-4.0756,-4.0765,-4.0652,-4.0651,-4.065,0,0,-4.0277,-4.0303,-4.0351,-4.0377,-4.0416,-4.0429,-4.0441,-4.0478,-4.049,-4.0548,-4.0544,-4.0581,-4.065,-4.0675,-4.0697,-4.0772,-4.0766,-4.0785,-4.0818,-4.0853,-4.0861,-4.0868,-4.0894,-4.0903,-4.0791,-4.0791,-4.0791,0,-4.0301,-4.0365,-4.0376,-4.0423,-4.0448,-4.0446,-4.0494,-4.0518,-4.0567,-4.0584,-4.057,-4.0657,-4.0681,-4.0749,-4.0768,-4.0786,-4.0799,-4.0779,-4.0859,-4.0867,-4.0873,-4.0897,-4.0907,-4.0793,-4.0793,-4.0792,-4.0792,0,-4.0392,-4.0436,-4.0471,-4.0518,-4.0548,-4.0595,-4.0613,-4.0641,-4.0644,-4.066,-4.0718,-4.0747,-4.0791,-4.0808,-4.0812,-4.0877,-4.0868,-4.0857,-4.0831,-4.0885,-4.0907,-4.0917,-4.0795,-4.0795,-4.0794,-4.0794,0,0,-4.0465,-4.052,-4.0532,-4.0554,-4.0597,-4.0631,-4.0678,-4.0722,-4.0745,-4.078,-4.0818,-4.0878,-4.0868,-4.0893,-4.0899,-4.093,-4.0986,-4.0915,-4.0916,-4.0925,-4.1059,-4.1065,-4.1076,-4.0983,-4.0985,-4.0987,-4.1055,0,-4.0532,-4.0616,-4.0628,-4.0701,-4.0742,-4.0741,-4.0782,-4.0812,-4.0828,-4.0865,-4.0882,-4.0924,-4.0908,-4.0923,-4.0954,-4.0972,-4.1012,-4.0968,-4.1018,-4.102,-4.1007,-4.1088,-4.1095,-4.1158,-4.1064,-4.1066,-4.1067,0,-4.062,-4.0657,-4.0735,-4.0772,-4.079,-4.0826,-4.0868,-4.0903,-4.0937,-4.0947,-4.0975,-4.0978,-4.1026,-4.1,-4.1066,-4.1035,-4.1057,-4.107,-4.1072,-4.1075,-4.1045,-4.1091,-4.1179,-4.1187,-4.1081,-4.108,-4.1079,0,-4.0664,-4.0734,-4.0789,-4.0808,-4.0853,-4.0879,-4.0899,-4.0931,-4.0957,-4.0993,-4.101,-4.1051,-4.1073,-4.1105,-4.1119,-4.1099,-4.1183,-4.1158,-4.1191,-4.1191,-4.1207,-4.1205,-4.1297,-4.1225,-4.1225,-4.1224,-4.1224,0,-4.0736,-4.0783,-4.0809,-4.0843,-4.0896,-4.091,-4.0961,-4.098,-4.101,-4.1047,-4.1049,-4.1084,-4.1101,-4.1138,-4.1149,-4.1201,-4.1211,-4.1219,-4.1221,-4.1218,-4.1217,-4.123,-4.1225,-4.1227,-4.1226,-4.1226,-4.1225,0,-4.0792,-4.0812,-4.0872,-4.0911,-4.0922,-4.0959,-4.0991,-4.1024,-4.104,-4.1087,-4.1099,-4.1124,-4.1168,-4.1185,-4.1239,-4.1246,-4.1306,-4.1305,-4.1294,-4.1294,-4.1325,-4.1321,-4.1427,-4.1441,-4.1361,-4.1362,-4.1363,0,-4.0836,-4.0872,-4.0915,-4.094,-4.0961,-4.1002,-4.1028,-4.1044,-4.1072,-4.1114,-4.1141,-4.1185,-4.1221,-4.129,-4.1313,-4.1354,-4.1353,-4.1388,-4.1359,-4.1354,-4.1351,-4.1348,-4.1351,-4.1392,-4.1393,-4.1393,-4.1394,0,-4.091,-4.0918,-4.0957,-4.0999,-4.1031,-4.1065,-4.1098,-4.1118,-4.1139,-4.1169,-4.1214,-4.1242,-4.1297,-4.134,-4.1382,-4.1402,-4.1401,-4.1403,-4.1412,-4.1408,-4.1399,-4.1403,-4.1306,-4.14,-4.1399,-4.1399,-4.1399,-4.1398,-4.096,-4.0992,-4.1027,-4.107,-4.1097,-4.1128,-4.116,-4.1181,-4.1219,-4.1265,-4.1273,-4.132,-4.1354,-4.1411,-4.1433,-4.147,-4.1461,-4.1475,-4.1478,-4.148,-4.1482,-4.1396,-4.1478,-4.1478,-4.1477,-4.1477,-4.1477,0,-4.1033,-4.1056,-4.1096,-4.1142,-4.1175,-4.1173,-4.121,-4.1237,-4.128,-4.1312,-4.1347,-4.1399,-4.1441,-4.1468,-4.151,-4.1534,-4.1535,-4.1545,-4.1542,-4.1546,-4.1488,-4.1475,-4.1544,-4.1544,-4.1543,-4.1543,-4.1543,-4.1543,-4.1075,-4.1128,-4.1141,-4.1208,-4.123,-4.1278,-4.1299,-4.1327,-4.1352,-4.141,-4.1445,-4.1463,-4.1493,-4.1537,-4.1575,-4.1582,-4.1597,-4.1607,-4.1613,-4.1557,-4.155,-4.1544,-4.1531,-4.161,-4.1611,-4.1667,-4.1668,-4.1668]},{"header":{"parameterUnit":"m.s-1","parameterCategory":1,"la1":30.2991,"la2":30.254,"lo1":-89.0895,"lo2":-89.0444,"dy":0.0017,"dx":0.0017,"nx":28,"ny":28,"refTime":"2025-04-18T09:00:00:Z","depth":0,"parameterNumber":3,"parameterNumberName":"V-component_of_WINDS"},"data":[0,0,0,0,0,0,0,0,0,0,0,0,0,0,0,0,0,0,0,0,0,0,0,0,0,0,0,0,0,0,0,0,0,0,0,0,0,0,0,0,0,0,0,0,0,0,0,0,0,0,0,0,0,0,0,0,0,0,4.1265,4.1265,0,4.1329,4.1329,4.133,4.1335,4.1334,4.1333,4.1333,4.1398,4.14,4.1402,0,0,0,0,0,0,0,0,0,0,0,0,0,4.1148,4.115,4.1265,4.1265,4.1266,4.1329,4.1329,4.133,4.1335,4.1334,4.1333,4.1332,4.1397,4.14,4.1402,0,0,0,0,0,0,0,0,0,0,0,0,0,4.1204,4.1151,4.1265,4.1276,4.1278,4.1328,4.1329,4.133,4.1335,4.1334,4.1333,4.1332,4.1396,4.1399,4.1403,4.1446,0,0,4.1414,4.1415,0,0,0,0,0,0,0,0,4.1201,4.1208,4.1274,4.1275,4.1277,4.1323,4.1312,4.1369,4.1335,4.1313,4.1332,4.1331,4.1373,4.1379,4.1393,4.1449,4.1452,4.1414,4.1416,4.1418,4.1419,0,0,0,0,0,0,0,4.1197,4.1206,4.129,4.1274,4.1277,4.1279,4.1285,4.1323,4.1348,4.1315,4.1315,4.1323,4.1374,4.139,4.1395,4.1453,4.1414,4.1417,4.1419,4.1421,4.1552,4.1553,0,0,0,0,0,0,4.1191,4.1202,4.1288,4.1292,4.1236,4.1282,4.1289,4.1309,4.1348,4.1353,4.1324,4.1323,4.1384,4.139,4.1397,4.1453,4.1418,4.1421,4.1423,4.155,4.1552,4.1553,0,0,0,0,0,0,4.1188,4.1198,4.1285,4.1247,4.1259,4.1285,4.1307,4.1311,4.1326,4.1355,4.1359,4.1335,4.1383,4.1392,4.1435,4.1455,4.1423,4.1426,4.1549,4.1551,4.1553,4.1563,0,0,0,0,0,0,4.1185,4.1198,4.1214,4.1248,4.1261,4.1322,4.1308,4.1313,4.1333,4.1332,4.1366,4.1371,4.1383,4.1429,4.1438,4.1459,4.1429,4.1547,4.155,4.1552,4.1561,4.1565,4.1569,0,0,0,0,0,4.1181,4.1213,4.1214,4.1225,4.1281,4.1323,4.133,4.1344,4.1334,4.1351,4.137,4.137,4.1451,4.1434,4.1444,4.1466,4.1546,4.1549,4.1552,4.1559,4.1564,4.1569,0,0,0,0,0,0,4.118,4.1218,4.122,4.1264,4.129,4.1323,4.1345,4.1348,4.1377,4.1376,4.1391,4.1399,4.1442,4.1458,4.1438,4.1512,4.1498,4.1503,4.15,4.1505,4.1509,4.1504,4.1432,0,0,0,0,0,4.1185,4.1215,4.1247,4.1283,4.1296,4.1318,4.1337,4.1345,4.1373,4.1384,4.1406,4.1433,4.1465,4.1486,4.1516,4.1563,4.1572,4.1584,4.1588,4.1591,4.1595,4.1624,4.1631,4.1563,4.1563,4.1563,0,0,4.1196,4.122,4.1238,4.1283,4.1305,4.1337,4.1328,4.1361,4.1385,4.1389,4.1432,4.1449,4.148,4.1526,4.1547,4.1541,4.1616,4.1594,4.1597,4.16,4.1628,4.1634,4.164,4.1565,4.1565,4.1564,0,0,4.1232,4.1252,4.1286,4.1308,4.1341,4.1356,4.1365,4.1398,4.141,4.1453,4.1458,4.1487,4.1541,4.1564,4.1583,4.1631,4.1633,4.164,4.1661,4.1689,4.1694,4.1699,4.1718,4.1725,4.1645,4.1645,4.1645,0,4.1241,4.1289,4.1303,4.1338,4.1358,4.1364,4.14,4.142,4.1462,4.1476,4.1468,4.1539,4.156,4.1613,4.1625,4.1639,4.165,4.1637,4.1692,4.1697,4.1702,4.1721,4.1728,4.1645,4.1645,4.1645,4.1645,0,4.13,4.1333,4.1356,4.1397,4.1421,4.1455,4.1476,4.1498,4.1505,4.1521,4.1567,4.1593,4.1631,4.1643,4.165,4.1698,4.1694,4.1689,4.1675,4.1709,4.1727,4.1734,4.1647,4.1646,4.1646,4.1646,0,0,4.1336,4.1386,4.1395,4.1415,4.1453,4.1479,4.1515,4.1552,4.1572,4.1601,4.1633,4.168,4.1676,4.1698,4.1707,4.1732,4.1771,4.1724,4.1725,4.1734,4.1829,4.1834,4.1842,4.1773,4.1774,4.1775,4.1827,0,4.1377,4.1441,4.1457,4.1512,4.1545,4.1552,4.1584,4.1611,4.1628,4.1658,4.1677,4.1711,4.1703,4.1716,4.1741,4.1761,4.1791,4.1758,4.1804,4.1805,4.1797,4.1851,4.1855,4.1903,4.1834,4.1835,4.1836,0,4.1434,4.1466,4.1525,4.1562,4.1576,4.1604,4.1641,4.167,4.1702,4.1712,4.1738,4.1746,4.1785,4.1769,4.1824,4.1801,4.1821,4.1834,4.1836,4.1842,4.1824,4.186,4.1918,4.1926,4.1847,4.1846,4.1845,0,4.1458,4.1515,4.1558,4.1575,4.1618,4.1638,4.1657,4.1688,4.1711,4.1743,4.1759,4.1795,4.1815,4.1844,4.1862,4.1848,4.1917,4.1901,4.1928,4.1928,4.1943,4.1942,4.2007,4.1953,4.1953,4.1952,4.1952,0,4.1504,4.154,4.157,4.1597,4.1638,4.1656,4.1697,4.1716,4.1744,4.1776,4.1784,4.1813,4.1835,4.1868,4.1882,4.1927,4.1936,4.1947,4.195,4.1947,4.1946,4.1961,4.1959,4.1954,4.1954,4.1954,4.1953,0,4.1537,4.1558,4.1606,4.1644,4.1655,4.1684,4.1717,4.1744,4.1761,4.1802,4.1812,4.184,4.1879,4.19,4.1949,4.1959,4.2011,4.2011,4.2,4.2002,4.2028,4.2026,4.2107,4.2119,4.2055,4.2056,4.2056,0,4.1565,4.1594,4.1635,4.1658,4.1677,4.1712,4.1736,4.1755,4.178,4.182,4.1843,4.1883,4.1916,4.198,4.2005,4.2043,4.2046,4.2072,4.2052,4.2048,4.2049,4.2048,4.2052,4.2075,4.2076,4.2076,4.2077,0,4.1615,4.1625,4.1658,4.1697,4.1725,4.1756,4.1787,4.1805,4.1829,4.1857,4.1898,4.1924,4.1975,4.2016,4.2057,4.2077,4.2082,4.2083,4.2092,4.2089,4.2082,4.2089,4.2011,4.2081,4.2081,4.208,4.208,4.208,4.1648,4.1675,4.1709,4.1747,4.1773,4.1802,4.183,4.1852,4.1887,4.1931,4.194,4.1984,4.2018,4.2074,4.2096,4.2131,4.2126,4.2138,4.2141,4.2144,4.2147,4.2076,4.2138,4.2138,4.2138,4.2138,4.2138,0,4.17,4.1723,4.1758,4.1801,4.1832,4.1834,4.1869,4.1895,4.1934,4.1965,4.1999,4.2047,4.2088,4.2117,4.2158,4.2181,4.2185,4.2192,4.2191,4.2196,4.2148,4.2137,4.2188,4.2188,4.2188,4.2188,4.2188,4.2188,4.173,4.1777,4.1791,4.1851,4.1874,4.1917,4.1938,4.1965,4.1991,4.2045,4.2079,4.2098,4.2129,4.2173,4.2211,4.2219,4.2234,4.2242,4.225,4.2204,4.2199,4.2194,4.2184,4.2244,4.2244,4.2295,4.2296,4.2296]}]]